Time,TemperatureF,DewpointF,PressureIn,WindDirection,WindDirectionDegrees,WindSpeedMPH,WindSpeedGustMPH,Humidity,HourlyPrecipIn,Conditions,Clouds,dailyrainin,SolarRadiationWatts/m^2,SoftwareType,DateUTC
2013-04-10 00:02:00,32.0,31.0,-100.00,NE,44,0.0,0.0,95,0.00,,,0.00,1.000000,,2013-04-10 06:02:00,
2013-04-10 00:12:00,32.0,31.0,-100.00,NE,44,0.0,0.0,95,0.00,,,0.00,1.000000,,2013-04-10 06:12:00,
2013-04-10 00:42:00,31.0,29.0,-100.00,ENE,72,0.0,0.0,94,0.00,,,0.00,1.000000,,2013-04-10 06:42:00,
2013-04-10 00:52:00,31.0,29.0,-100.00,ENE,72,0.0,0.0,94,0.00,,,0.00,1.000000,,2013-04-10 06:52:00,
2013-04-10 01:02:00,31.0,29.0,-100.00,ENE,72,0.0,0.0,94,0.00,,,0.00,1.000000,,2013-04-10 07:02:00,
2013-04-10 01:12:00,31.0,29.0,-100.00,ENE,72,0.0,0.0,94,0.00,,,0.00,1.000000,,2013-04-10 07:12:00,
2013-04-10 01:43:00,30.0,28.0,-100.00,SW,224,0.0,0.0,92,0.00,,,0.00,1.000000,,2013-04-10 07:43:00,
2013-04-10 01:52:00,30.0,28.0,-100.00,SW,224,0.0,0.0,92,0.00,,,0.00,1.000000,,2013-04-10 07:52:00,
2013-04-10 02:02:00,30.0,28.0,-100.00,SW,224,0.0,0.0,92,0.00,,,0.00,1.000000,,2013-04-10 08:02:00,
2013-04-10 02:11:00,30.0,28.0,-100.00,SW,224,0.0,0.0,92,0.00,,,0.00,1.000000,,2013-04-10 08:11:00,
2013-04-10 02:42:00,29.0,27.0,-100.00,SSE,155,0.0,0.0,91,0.01,,,0.01,1.000000,,2013-04-10 08:42:00,
2013-04-10 02:52:00,29.0,27.0,-100.00,SSE,155,0.0,0.0,91,0.01,,,0.01,1.000000,,2013-04-10 08:52:00,
2013-04-10 03:02:00,29.0,27.0,-100.00,SSE,155,0.0,0.0,91,0.01,,,0.01,1.000000,,2013-04-10 09:02:00,
2013-04-10 03:12:00,29.0,27.0,-100.00,SSE,155,0.0,0.0,91,0.01,,,0.01,1.000000,,2013-04-10 09:12:00,
2013-04-10 03:43:00,28.0,25.0,-100.00,SSW,203,0.0,0.0,88,0.00,,,0.01,1.000000,,2013-04-10 09:43:00,
2013-04-10 03:53:00,28.0,25.0,-100.00,SSW,203,0.0,0.0,88,0.00,,,0.01,1.000000,,2013-04-10 09:53:00,
2013-04-10 04:02:00,28.0,25.0,-100.00,SSW,203,0.0,0.0,88,0.00,,,0.01,1.000000,,2013-04-10 10:02:00,
2013-04-10 04:12:00,28.0,25.0,-100.00,SSW,203,0.0,0.0,88,0.00,,,0.01,1.000000,,2013-04-10 10:12:00,
2013-04-10 04:33:00,27.0,23.0,-100.00,SSW,194,0.0,0.0,86,0.00,,,0.01,1.000000,,2013-04-10 10:33:00,
2013-04-10 04:43:00,27.0,23.0,-100.00,SSW,194,0.0,0.0,86,0.00,,,0.01,1.000000,,2013-04-10 10:43:00,
2013-04-10 04:52:00,27.0,23.0,-100.00,SSW,194,0.0,0.0,86,0.00,,,0.01,1.000000,,2013-04-10 10:52:00,
2013-04-10 05:02:00,27.0,23.0,-100.00,SSW,194,0.0,0.0,86,0.00,,,0.01,1.000000,,2013-04-10 11:02:00,
2013-04-10 05:12:00,27.0,23.0,-100.00,SSW,194,0.0,0.0,86,0.00,,,0.01,1.000000,,2013-04-10 11:12:00,
2013-04-10 07:43:00,22.0,19.0,-100.00,ENE,65,0.0,0.0,87,-99.99,,,0.01,10.000000,,2013-04-10 13:43:00,
2013-04-10 07:53:00,22.0,19.0,-100.00,ENE,65,0.0,0.0,87,-99.99,,,0.01,10.000000,,2013-04-10 13:53:00,
2013-04-10 08:02:00,22.0,19.0,-100.00,ENE,65,0.0,0.0,87,-99.99,,,0.01,10.000000,,2013-04-10 14:02:00,
2013-04-10 08:12:00,22.0,19.0,-100.00,ENE,65,0.0,0.0,87,-99.99,,,0.01,10.000000,,2013-04-10 14:12:00,
2013-04-10 08:33:00,28.0,20.0,-100.00,SSW,205,0.0,0.0,73,0.00,,,0.01,171.000000,,2013-04-10 14:33:00,
2013-04-10 08:42:00,28.0,20.0,-100.00,SSW,205,0.0,0.0,73,0.00,,,0.01,171.000000,,2013-04-10 14:42:00,
2013-04-10 08:52:00,28.0,20.0,-100.00,SSW,205,0.0,0.0,73,0.00,,,0.01,171.000000,,2013-04-10 14:52:00,
2013-04-10 09:02:00,28.0,20.0,-100.00,SSW,205,0.0,0.0,73,0.00,,,0.01,171.000000,,2013-04-10 15:02:00,
2013-04-10 09:12:00,28.0,20.0,-100.00,SSW,205,0.0,0.0,73,0.00,,,0.01,171.000000,,2013-04-10 15:12:00,
2013-04-10 10:33:00,32.0,22.0,-100.00,SW,220,6.0,13.0,67,-99.99,,,0.03,457.000000,,2013-04-10 16:33:00,
2013-04-10 10:43:00,32.0,22.0,-100.00,SW,220,6.0,13.0,67,-99.99,,,0.03,457.000000,,2013-04-10 16:43:00,
2013-04-10 10:53:00,32.0,22.0,-100.00,SW,220,6.0,13.0,67,-99.99,,,0.03,457.000000,,2013-04-10 16:53:00,
2013-04-10 11:02:00,32.0,22.0,-100.00,SW,220,6.0,13.0,67,-99.99,,,0.03,457.000000,,2013-04-10 17:02:00,
2013-04-10 11:12:00,32.0,22.0,-100.00,SW,220,6.0,13.0,67,-99.99,,,0.03,457.000000,,2013-04-10 17:12:00,
2013-04-10 11:34:00,33.0,21.0,-100.00,South,180,4.0,11.0,60,0.12,,,-99.99,755.000000,,2013-04-10 17:34:00,
2013-04-10 11:43:00,33.0,21.0,-100.00,South,180,4.0,11.0,60,0.12,,,-99.99,755.000000,,2013-04-10 17:43:00,
2013-04-10 11:52:00,33.0,21.0,-100.00,South,180,4.0,11.0,60,0.12,,,-99.99,755.000000,,2013-04-10 17:52:00,
2013-04-10 12:02:00,33.0,21.0,-100.00,South,180,4.0,11.0,60,0.12,,,-99.99,755.000000,,2013-04-10 18:02:00,
2013-04-10 12:12:00,33.0,21.0,-100.00,South,180,4.0,11.0,60,0.12,,,-99.99,755.000000,,2013-04-10 18:12:00,
2013-04-10 12:43:00,37.0,25.0,-100.00,SSW,199,4.0,12.0,61,0.01,,,0.16,993.000000,,2013-04-10 18:43:00,
2013-04-10 12:52:00,37.0,25.0,-100.00,SSW,199,4.0,12.0,61,0.01,,,0.16,993.000000,,2013-04-10 18:52:00,
2013-04-10 13:02:00,37.0,25.0,-100.00,SSW,199,4.0,12.0,61,0.01,,,0.16,993.000000,,2013-04-10 19:02:00,
2013-04-10 13:12:00,37.0,25.0,-100.00,SSW,199,4.0,12.0,61,0.01,,,0.16,993.000000,,2013-04-10 19:12:00,
2013-04-10 13:42:00,39.0,26.0,-100.00,WSW,237,4.0,11.0,60,0.00,,,0.16,963.000000,,2013-04-10 19:42:00,
2013-04-10 13:53:00,39.0,26.0,-100.00,WSW,237,4.0,11.0,60,0.00,,,0.16,963.000000,,2013-04-10 19:53:00,
2013-04-10 14:02:00,39.0,26.0,-100.00,WSW,237,4.0,11.0,60,0.00,,,0.16,963.000000,,2013-04-10 20:02:00,
2013-04-10 14:12:00,39.0,26.0,-100.00,WSW,237,4.0,11.0,60,0.00,,,0.16,963.000000,,2013-04-10 20:12:00,
2013-04-10 14:42:00,41.0,24.0,-100.00,SSW,211,4.0,10.0,50,0.00,,,0.16,1113.000000,,2013-04-10 20:42:00,
2013-04-10 14:52:00,41.0,24.0,-100.00,SSW,211,4.0,10.0,50,0.00,,,0.16,1113.000000,,2013-04-10 20:52:00,
2013-04-10 15:02:00,41.0,24.0,-100.00,SSW,211,4.0,10.0,50,0.00,,,0.16,1113.000000,,2013-04-10 21:02:00,
2013-04-10 15:12:00,41.0,24.0,-100.00,SSW,211,4.0,10.0,50,0.00,,,0.16,1113.000000,,2013-04-10 21:12:00,
2013-04-10 15:43:00,41.0,25.0,-100.00,SW,235,4.0,8.0,53,0.00,,,0.16,741.000000,,2013-04-10 21:43:00,
2013-04-10 15:53:00,41.0,25.0,-100.00,SW,235,4.0,8.0,53,0.00,,,0.16,741.000000,,2013-04-10 21:53:00,
2013-04-10 16:03:00,41.0,25.0,-100.00,SW,235,4.0,8.0,53,0.00,,,0.16,741.000000,,2013-04-10 22:03:00,
2013-04-10 16:12:00,41.0,25.0,-100.00,SW,235,4.0,8.0,53,0.00,,,0.16,741.000000,,2013-04-10 22:12:00,
2013-04-10 16:43:00,42.0,25.0,-100.00,SW,214,3.0,8.0,50,0.00,,,0.16,513.000000,,2013-04-10 22:43:00,
2013-04-10 16:53:00,42.0,25.0,-100.00,SW,214,3.0,8.0,50,0.00,,,0.16,513.000000,,2013-04-10 22:53:00,
2013-04-10 17:02:00,42.0,25.0,-100.00,SW,214,3.0,8.0,50,0.00,,,0.16,513.000000,,2013-04-10 23:02:00,
2013-04-10 17:12:00,42.0,25.0,-100.00,SW,214,3.0,8.0,50,0.00,,,0.16,513.000000,,2013-04-10 23:12:00,
2013-04-10 17:33:00,45.0,25.0,-100.00,South,169,3.0,8.0,45,0.02,,,0.18,710.000000,,2013-04-10 23:33:00,
2013-04-10 17:43:00,45.0,25.0,-100.00,South,169,3.0,8.0,45,0.02,,,0.18,710.000000,,2013-04-10 23:43:00,
2013-04-10 17:52:00,45.0,25.0,-100.00,South,169,3.0,8.0,45,0.02,,,0.18,710.000000,,2013-04-10 23:52:00,
2013-04-10 18:02:00,45.0,25.0,-100.00,South,169,3.0,8.0,45,0.02,,,0.18,710.000000,,2013-04-11 00:02:00,
2013-04-10 18:12:00,45.0,25.0,-100.00,South,169,3.0,8.0,45,0.02,,,0.18,710.000000,,2013-04-11 00:12:00,
2013-04-10 18:43:00,45.0,25.0,-100.00,SE,124,4.0,8.0,46,0.02,,,0.20,524.000000,,2013-04-11 00:43:00,
2013-04-10 18:53:00,45.0,25.0,-100.00,SE,124,4.0,8.0,46,0.02,,,0.20,524.000000,,2013-04-11 00:53:00,
2013-04-10 19:02:00,45.0,25.0,-100.00,SE,124,4.0,8.0,46,0.02,,,0.20,524.000000,,2013-04-11 01:02:00,
2013-04-10 19:12:00,45.0,25.0,-100.00,SE,124,4.0,8.0,46,0.02,,,0.20,524.000000,,2013-04-11 01:12:00,
2013-04-10 19:42:00,43.0,26.0,-100.00,ESE,102,3.0,5.0,50,0.35,,,0.55,238.000000,,2013-04-11 01:42:00,
2013-04-10 19:52:00,43.0,26.0,-100.00,ESE,102,3.0,5.0,50,0.35,,,0.55,238.000000,,2013-04-11 01:52:00,
2013-04-10 20:02:00,43.0,26.0,-100.00,ESE,102,3.0,5.0,50,0.35,,,0.55,238.000000,,2013-04-11 02:02:00,
2013-04-10 20:12:00,43.0,26.0,-100.00,ESE,102,3.0,5.0,50,0.35,,,0.55,238.000000,,2013-04-11 02:12:00,
2013-04-10 20:52:00,35.0,29.0,-100.00,NW,312,1.0,4.0,77,0.00,,,0.55,14.000000,,2013-04-11 02:52:00,
2013-04-10 21:02:00,35.0,29.0,-100.00,NW,312,1.0,4.0,77,0.00,,,0.55,14.000000,,2013-04-11 03:02:00,
2013-04-10 21:12:00,35.0,29.0,-100.00,NW,312,1.0,4.0,77,0.00,,,0.55,14.000000,,2013-04-11 03:12:00,
2013-04-10 21:43:00,30.0,26.0,-100.00,NW,306,1.0,3.0,85,0.00,,,0.55,1.000000,,2013-04-11 03:43:00,
2013-04-10 21:53:00,30.0,26.0,-100.00,NW,306,1.0,3.0,85,0.00,,,0.55,1.000000,,2013-04-11 03:53:00,
2013-04-10 22:03:00,30.0,26.0,-100.00,NW,306,1.0,3.0,85,0.00,,,0.55,1.000000,,2013-04-11 04:03:00,
2013-04-10 22:12:00,30.0,26.0,-100.00,NW,306,1.0,3.0,85,0.00,,,0.55,1.000000,,2013-04-11 04:12:00,
2013-04-10 22:43:00,29.0,26.0,-100.00,NNW,327,2.0,4.0,90,0.00,,,0.55,1.000000,,2013-04-11 04:43:00,
2013-04-10 22:53:00,29.0,26.0,-100.00,NNW,327,2.0,4.0,90,0.00,,,0.55,1.000000,,2013-04-11 04:53:00,
2013-04-10 23:02:00,29.0,26.0,-100.00,NNW,327,2.0,4.0,90,0.00,,,0.55,1.000000,,2013-04-11 05:02:00,
2013-04-10 23:12:00,29.0,26.0,-100.00,NNW,327,2.0,4.0,90,0.00,,,0.55,1.000000,,2013-04-11 05:12:00,
2013-04-10 23:42:00,31.0,27.0,-100.00,NW,314,2.0,5.0,85,0.00,,,0.55,1.000000,,2013-04-11 05:42:00,
2013-04-10 23:52:00,31.0,27.0,-100.00,NW,314,2.0,5.0,85,0.00,,,0.55,1.000000,,2013-04-11 05:52:00,